| time (UTC) | temp C | wind direction | speed KPH | gust KPH | rain 1hr cm | rain 24hr cm | rain mn cm | humidity % | barometer mb |
| 20260902151745 | 17 | 213 | 0.0 | 0.0 | 0.00 | 0.13 | 0.00 | 82 | 1021.2 |
| 20260902150244 | 17 | 193 | 0.0 | 0.0 | 0.00 | 0.13 | 0.00 | 83 | 1021.2 |
| 20260902144741 | 17 | 195 | 0.0 | 0.0 | 0.00 | 0.13 | 0.00 | 87 | 1021.1 |
| 20260902143241 | 17 | 190 | 0.0 | 0.0 | 0.00 | 0.13 | 0.00 | 87 | 1021.0 |
| 20260902141738 | 17 | 189 | 0.0 | 0.0 | 0.00 | 0.13 | 0.00 | 88 | 1020.9 |
| 20260902140933 | 17 | 153 | 0.0 | 0.0 | 0.00 | 0.13 | 0.00 | 90 | 1020.8 |
| 20260902134735 | 17 | 184 | 0.0 | 0.0 | 0.00 | 0.15 | 0.00 | 91 | 1020.8 |
| 20260902133233 | 16 | 201 | 0.0 | 0.0 | 0.00 | 0.15 | 0.00 | 91 | 1020.7 |
| 20260902131732 | 16 | 183 | 0.0 | 0.0 | 0.00 | 0.18 | 0.00 | 92 | 1020.4 |
| 20260902130230 | 16 | 205 | 0.0 | 0.0 | 0.00 | 0.18 | 0.00 | 94 | 1020.4 |
| 20260902124724 | 16 | 166 | 0.0 | 0.0 | 0.00 | 0.20 | 0.00 | 95 | 1020.6 |
| 20260902123223 | 15 | 192 | 0.0 | 0.0 | 0.00 | 0.20 | 0.00 | 96 | 1020.6 |
| 20260902122419 | 15 | 198 | 0.0 | 0.0 | 0.00 | 0.28 | 0.00 | 97 | 1020.6 |
| 20260902121621 | 15 | 215 | 0.0 | 0.0 | 0.00 | 0.36 | 0.00 | 98 | 1020.6 |
| 20260902114723 | 15 | 182 | 0.0 | 0.0 | 0.00 | 0.46 | 0.00 | 98 | 1020.6 |
| 20260902111722 | 15 | 196 | 0.0 | 0.0 | 0.00 | 0.66 | 0.00 | 98 | 1020.8 |
| 20260902110224 | 15 | 196 | 0.0 | 1.6 | 0.00 | 0.74 | 0.00 | 98 | 1020.8 |
| 20260902104722 | 15 | 196 | 0.0 | 0.0 | 0.00 | 0.81 | 0.00 | 98 | 1020.8 |
| 20260902103221 | 15 | 196 | 0.0 | 0.0 | 0.00 | 0.86 | 0.00 | 98 | 1020.6 |
| 20260902101719 | 15 | 196 | 0.0 | 0.0 | 0.00 | 0.91 | 0.00 | 98 | 1020.6 |
| 20260902100222 | 15 | 196 | 0.0 | 0.0 | 0.00 | 0.94 | 0.00 | 98 | 1020.3 |
| 20260902094720 | 15 | 196 | 0.0 | 0.0 | 0.00 | 0.94 | 0.00 | 98 | 1020.4 |
| 20260902093219 | 15 | 196 | 0.0 | 0.0 | 0.00 | 0.94 | 0.00 | 98 | 1020.2 |
| 20260902091719 | 15 | 196 | 0.0 | 0.0 | 0.00 | 0.94 | 0.00 | 98 | 1020.1 |
| 20260902090220 | 15 | 196 | 0.0 | 0.0 | 0.00 | 0.94 | 0.00 | 98 | 1020.0 |
| 20260902084718 | 15 | 195 | 0.0 | 0.0 | 0.00 | 0.94 | 0.00 | 98 | 1020.0 |
| 20260902083219 | 15 | 201 | 0.0 | 0.0 | 0.00 | 0.94 | 0.00 | 98 | 1020.1 |
| 20260902081718 | 15 | 201 | 0.0 | 1.6 | 0.00 | 0.94 | 0.00 | 98 | 1020.0 |
| 20260902080216 | 15 | 200 | 0.0 | 0.0 | 0.00 | 0.94 | 0.00 | 98 | 1020.1 |
| 20260902074718 | 15 | 196 | 0.0 | 0.0 | 0.00 | 0.94 | 0.00 | 98 | 1020.0 |
| 20260902073913 | 15 | 197 | 0.0 | 0.0 | 0.00 | 0.94 | 0.00 | 98 | 1020.2 |
| 20260902071717 | 15 | 197 | 0.0 | 0.0 | 0.00 | 0.94 | 0.00 | 98 | 1020.1 |
| 20260902070215 | 15 | 196 | 0.0 | 0.0 | 0.00 | 0.94 | 0.00 | 98 | 1020.0 |
| 20260902064714 | 16 | 197 | 0.0 | 0.0 | 0.00 | 0.94 | 0.00 | 97 | 1020.1 |
| 20260902063216 | 16 | 196 | 0.0 | 0.0 | 0.00 | 0.94 | 0.00 | 98 | 1020.2 |
| 20260902061715 | 16 | 196 | 0.0 | 0.0 | 0.00 | 0.94 | 0.00 | 98 | 1019.9 |
| 20260902060214 | 16 | 203 | 0.0 | 0.0 | 0.00 | 0.94 | 0.00 | 98 | 1019.6 |
| 20260902055418 | 16 | 203 | 0.0 | 0.0 | 0.00 | 0.94 | 0.00 | 98 | 1019.7 |
| 20260902053210 | 16 | 203 | 0.0 | 0.0 | 0.00 | 0.94 | 0.00 | 98 | 1019.6 |
| 20260902051711 | 16 | 197 | 0.0 | 0.0 | 0.00 | 0.94 | 0.00 | 98 | 1019.5 |
| 20260902050210 | 16 | 197 | 0.0 | 0.0 | 0.00 | 0.94 | 0.00 | 98 | 1019.4 |
| 20260902044708 | 16 | 197 | 0.0 | 0.0 | 0.00 | 0.94 | 0.00 | 98 | 1019.3 |
| 20260902043208 | 16 | 197 | 0.0 | 0.0 | 0.00 | 0.94 | 0.00 | 97 | 1019.2 |
| 20260902041706 | 16 | 197 | 0.0 | 0.0 | 0.00 | 0.94 | 0.00 | 97 | 1019.1 |
| 20260902040205 | 16 | 197 | 0.0 | 0.0 | 0.03 | 0.94 | 0.00 | 97 | 1019.0 |
| 20260902035353 | 16 | 189 | 0.0 | 3.2 | 0.03 | 0.94 | 0.94 | 97 | 1018.9 |
| 20260902033204 | 16 | 198 | 1.6 | 8.0 | 0.03 | 0.94 | 0.94 | 97 | 1018.7 |
| 20260902031701 | 16 | 198 | 0.0 | 0.0 | 0.03 | 0.94 | 0.94 | 98 | 1018.7 |
| 20260902030203 | 16 | 202 | 0.0 | 0.0 | 0.00 | 0.91 | 0.91 | 97 | 1018.8 |
| 20260902024701 | 16 | 202 | 0.0 | 0.0 | 0.00 | 0.91 | 0.91 | 97 | 1018.8 |
| 20260902023857 | 16 | 202 | 0.0 | 0.0 | 0.00 | 0.91 | 0.91 | 97 | 1018.7 |
| 20260902021702 | 16 | 202 | 0.0 | 4.8 | 0.00 | 0.91 | 0.91 | 97 | 1018.6 |
| 20260902020859 | 16 | 202 | 0.0 | 4.8 | 0.03 | 0.91 | 0.91 | 97 | 1018.6 |
| 20260902014659 | 16 | 197 | 0.0 | 6.4 | 0.05 | 0.91 | 0.91 | 97 | 1018.3 |
| 20260902013159 | 17 | 192 | 0.0 | 0.0 | 0.05 | 0.91 | 0.91 | 97 | 1018.4 |
| 20260902011658 | 17 | 190 | 0.0 | 0.0 | 0.08 | 0.91 | 0.91 | 97 | 1018.4 |
| 20260902010851 | 17 | 232 | 0.0 | 0.0 | 0.05 | 0.89 | 0.89 | 97 | 1018.4 |
| 20260902004659 | 17 | 232 | 0.0 | 0.0 | 0.03 | 0.86 | 0.86 | 97 | 1018.5 |
| 20260902003157 | 17 | 232 | 0.0 | 0.0 | 0.03 | 0.86 | 0.86 | 96 | 1018.4 |
| 20260902001653 | 17 | 232 | 0.0 | 0.0 | 0.00 | 0.84 | 0.84 | 97 | 1018.3 |
| 20260902001602 | 17 | 232 | 0.0 | 0.0 | 0.00 | 0.84 | 0.84 | 96 | 1018.1 |
| 20260901233152 | 17 | 232 | 0.0 | 0.0 | 0.00 | 0.84 | 0.84 | 96 | 1017.8 |
| 20260901231650 | 17 | 232 | 0.0 | 0.0 | 0.00 | 0.84 | 0.84 | 96 | 1017.7 |
| 20260901230149 | 17 | 232 | 0.0 | 0.0 | 0.00 | 0.84 | 0.84 | 95 | 1017.8 |
| 20260901224648 | 17 | 232 | 0.0 | 0.0 | 0.00 | 0.84 | 0.84 | 96 | 1017.8 |
| 20260901223146 | 18 | 232 | 0.0 | 0.0 | 0.00 | 0.84 | 0.84 | 95 | 1017.5 |
| 20260901222336 | 18 | 232 | 0.0 | 0.0 | 0.00 | 0.84 | 0.84 | 95 | 1017.5 |
| 20260901220144 | 18 | 232 | 0.0 | 0.0 | 0.00 | 0.84 | 0.84 | 95 | 1017.7 |
| 20260901214644 | 18 | 232 | 0.0 | 0.0 | 0.00 | 0.84 | 0.84 | 95 | 1017.5 |
| 20260901213849 | 18 | 232 | 0.0 | 0.0 | 0.00 | 0.84 | 0.84 | 94 | 1017.4 |
| 20260901211638 | 18 | 232 | 0.0 | 0.0 | 0.00 | 0.84 | 0.84 | 93 | 1017.3 |
| 20260901210136 | 18 | 232 | 0.0 | 0.0 | 0.00 | 0.84 | 0.84 | 94 | 1017.1 |
| 20260901204633 | 18 | 232 | 0.0 | 0.0 | 0.00 | 0.84 | 0.84 | 94 | 1017.2 |
| 20260901203132 | 18 | 232 | 0.0 | 0.0 | 0.00 | 0.84 | 0.84 | 92 | 1017.1 |
| 20260901201629 | 18 | 246 | 0.0 | 0.0 | 0.00 | 0.84 | 0.84 | 90 | 1017.0 |
| 20260901200127 | 18 | 248 | 0.0 | 0.0 | 0.03 | 0.84 | 0.84 | 93 | 1017.1 |
| 20260901194627 | 18 | 248 | 0.0 | 0.0 | 0.03 | 0.84 | 0.84 | 91 | 1017.2 |
| 20260901193128 | 18 | 248 | 0.0 | 0.0 | 0.03 | 0.84 | 0.84 | 90 | 1017.2 |
| 20260901191627 | 18 | 248 | 0.0 | 0.0 | 0.03 | 0.84 | 0.84 | 90 | 1017.1 |
| 20260901190126 | 18 | 248 | 0.0 | 0.0 | 0.00 | 0.81 | 0.81 | 90 | 1017.3 |
| 20260901184626 | 18 | 252 | 0.0 | 0.0 | 0.00 | 0.81 | 0.81 | 89 | 1017.4 |
| 20260901183123 | 17 | 252 | 0.0 | 0.0 | 0.00 | 0.81 | 0.81 | 89 | 1017.3 |
| 20260901181623 | 17 | 252 | 0.0 | 0.0 | 0.00 | 0.81 | 0.81 | 94 | 1017.4 |
| 20260901180816 | 17 | 329 | 0.0 | 0.0 | 0.00 | 0.81 | 0.81 | 95 | 1017.3 |
| 20260901174622 | 17 | 329 | 0.0 | 0.0 | 0.00 | 0.81 | 0.81 | 94 | 1017.3 |
| 20260901173122 | 17 | 329 | 0.0 | 0.0 | 0.00 | 0.81 | 0.81 | 91 | 1017.2 |
| 20260901171623 | 16 | 329 | 0.0 | 0.0 | 0.00 | 0.81 | 0.81 | 95 | 1017.2 |
| 20260901170123 | 16 | 329 | 0.0 | 0.0 | 0.00 | 0.81 | 0.81 | 96 | 1017.2 |
| 20260901165319 | 16 | 329 | 0.0 | 0.0 | 0.00 | 0.81 | 0.81 | 95 | 1017.4 |
| 20260901163819 | 16 | 329 | 0.0 | 0.0 | 0.00 | 0.81 | 0.81 | 96 | 1017.4 |
| 20260901161620 | 16 | 329 | 0.0 | 0.0 | 0.00 | 0.81 | 0.81 | 96 | 1017.3 |
| 20260901160117 | 16 | 329 | 0.0 | 0.0 | 0.00 | 0.81 | 0.81 | 97 | 1017.3 |
| 20260901154616 | 16 | 329 | 0.0 | 0.0 | 0.00 | 0.81 | 0.81 | 97 | 1017.4 |
| 20260901153809 | 16 | 329 | 0.0 | 0.0 | 0.00 | 0.81 | 0.81 | 96 | 1017.8 |